�������l�o���
Date,Time,MP-1(��Sv/h),MP-2(��Sv/h),MP-3(��Sv/h),MP-4(��Sv/h),MP-5(��Sv/h),MP-6(��Sv/h),MP-7(��Sv/h),MP-8(��Sv/h),����,����(m/s),���J
2018/11/26,00:00,0.785,1.184,0.830,1.487,1.072,0.456,0.804,0.763,���k��,4.4,��
2018/11/26,00:10,0.783,1.183,0.831,1.487,1.073,0.457,0.803,0.760,��,4.5,��
2018/11/26,00:20,0.784,1.185,0.832,1.489,1.071,0.456,0.804,0.763,���쐼,5.3,��
2018/11/26,00:30,0.783,1.183,0.832,1.489,1.071,0.455,0.804,0.758,��,5.5,��
2018/11/26,00:40,0.784,1.186,0.830,1.486,1.071,0.456,0.804,0.760,���k��,5.2,��
2018/11/26,00:50,0.783,1.184,0.830,1.486,1.069,0.455,0.804,0.760,���k��,5.9,��
2018/11/26,01:00,0.783,1.183,0.828,1.487,1.068,0.456,0.803,0.759,��,5.5,��
2018/11/26,01:10,0.785,1.183,0.830,1.488,1.070,0.457,0.804,0.761,��,4.9,��
2018/11/26,01:20,0.785,1.183,0.828,1.488,1.070,0.456,0.803,0.760,��,5.0,��
2018/11/26,01:30,0.785,1.186,0.829,1.487,1.073,0.456,0.804,0.763,���쐼,4.4,��
2018/11/26,01:40,0.786,1.182,0.831,1.487,1.069,0.457,0.803,0.761,��,3.9,��
2018/11/26,01:50,0.785,1.185,0.831,1.486,1.071,0.456,0.803,0.763,���쐼,2.5,��
2018/11/26,02:00,0.784,1.184,0.829,1.485,1.070,0.457,0.804,0.761,��,3.2,��
2018/11/26,02:10,0.784,1.184,0.830,1.491,1.068,0.455,0.803,0.762,��,3.2,��
2018/11/26,02:20,0.785,1.184,0.831,1.489,1.069,0.457,0.803,0.761,���쐼,3.4,��
2018/11/26,02:30,0.786,1.184,0.833,1.485,1.070,0.455,0.804,0.761,���쐼,3.4,��
2018/11/26,02:40,0.784,1.184,0.831,1.488,1.070,0.455,0.804,0.759,��,5.1,��
2018/11/26,02:50,0.783,1.185,0.831,1.489,1.070,0.454,0.803,0.760,��,6.0,��
2018/11/26,03:00,0.783,1.184,0.831,1.486,1.070,0.456,0.803,0.761,��,4.4,��
2018/11/26,03:10,0.785,1.183,0.831,1.490,1.070,0.456,0.804,0.761,��,4.4,��
2018/11/26,03:20,0.785,1.183,0.830,1.489,1.071,0.457,0.803,0.759,�쐼,3.8,��
2018/11/26,03:30,0.787,1.186,0.829,1.487,1.068,0.456,0.803,0.762,�쐼,3.0,��
2018/11/26,03:40,0.785,1.185,0.831,1.488,1.070,0.455,0.804,0.761,��,4.1,��
2018/11/26,03:50,0.784,1.185,0.831,1.489,1.070,0.456,0.804,0.762,��,5.1,��
2018/11/26,04:00,0.784,1.184,0.831,1.489,1.071,0.455,0.804,0.760,��,4.7,��
2018/11/26,04:10,0.784,1.184,0.832,1.490,1.069,0.456,0.804,0.760,���k��,4.8,��
2018/11/26,04:20,0.785,1.182,0.830,1.489,1.073,0.457,0.805,0.761,�k��,4.9,��
2018/11/26,04:30,0.783,1.185,0.833,1.487,1.068,0.456,0.803,0.762,���k��,6.2,��
2018/11/26,04:40,0.785,1.185,0.831,1.489,1.070,0.457,0.801,0.761,���k��,5.4,��
2018/11/26,04:50,0.783,1.185,0.831,1.489,1.071,0.455,0.802,0.761,���k��,4.4,��
2018/11/26,05:00,0.784,1.184,0.830,1.489,1.069,0.454,0.803,0.759,�k�k��,6.1,��
2018/11/26,05:10,0.785,1.185,0.829,1.489,1.069,0.455,0.804,0.760,�k�k��,7.3,��
2018/11/26,05:20,0.783,1.184,0.831,1.489,1.069,0.455,0.804,0.759,�k��,7.9,��
2018/11/26,05:30,0.782,1.185,0.830,1.487,1.068,0.456,0.805,0.762,�k�k��,9.1,��
2018/11/26,05:40,0.787,1.183,0.830,1.489,1.070,0.454,0.804,0.759,�k��,9.9,��
2018/11/26,05:50,0.782,1.183,0.830,1.490,1.069,0.455,0.804,0.761,�k�k��,7.8,��
2018/11/26,06:00,0.782,1.185,0.831,1.490,1.070,0.454,0.804,0.761,�k�k��,5.9,��
2018/11/26,06:10,0.785,1.184,0.832,1.488,1.072,0.455,0.804,0.760,�k�k��,6.9,��
2018/11/26,06:20,0.783,1.183,0.830,1.488,1.071,0.454,0.804,0.760,�k��,5.3,��
2018/11/26,06:30,0.785,1.184,0.830,1.488,1.072,0.455,0.804,0.760,�k�k��,5.9,��
2018/11/26,06:40,0.783,1.184,0.831,1.489,1.070,0.456,0.805,0.760,�k��,5.6,��
2018/11/26,06:50,0.783,1.180,0.829,1.488,1.069,0.454,0.803,0.761,�k��,5.5,��
2018/11/26,07:00,0.783,1.182,0.829,1.490,1.070,0.456,0.802,0.761,�k�k��,5.4,��
2018/11/26,07:10,0.781,1.182,0.828,1.490,1.069,0.454,0.804,0.759,�k��,6.6,��
2018/11/26,07:20,0.782,1.185,0.830,1.490,1.069,0.453,0.805,0.761,�k��,6.3,��
2018/11/26,07:30,0.784,1.184,0.829,1.489,1.067,0.454,0.804,0.759,�k��,5.4,��
2018/11/26,07:40,0.784,1.184,0.830,1.489,1.067,0.453,0.804,0.760,���k��,6.6,��
2018/11/26,07:50,0.783,1.183,0.827,1.488,1.068,0.454,0.804,0.760,���k��,5.6,��
2018/11/26,08:00,0.784,1.184,0.829,1.488,1.069,0.455,0.805,0.761,���k��,3.7,��
2018/11/26,08:10,0.782,1.183,0.829,1.489,1.066,0.455,0.804,0.760,���k��,2.3,��
2018/11/26,08:20,0.783,1.183,0.829,1.492,1.066,0.455,0.805,0.760,���k��,3.1,��
2018/11/26,08:30,0.782,1.181,0.828,1.487,1.068,0.453,0.805,0.759,���k��,2.8,��
2018/11/26,08:40,0.783,1.185,0.830,1.488,1.071,0.454,0.803,0.761,��,1.5,��
2018/11/26,08:50,0.783,1.183,0.827,1.489,1.070,0.451,0.804,0.761,��,1.7,��
2018/11/26,09:00,0.783,1.181,0.830,1.489,1.067,0.453,0.805,0.760,�쓌,1.2,��
2018/11/26,09:10,0.784,1.178,0.829,1.489,1.069,0.454,0.804,0.760,���k��,1.1,��
2018/11/26,09:20,0.782,1.182,0.830,1.489,1.069,0.454,0.804,0.762,�k�k��,1.4,��
2018/11/26,09:30,0.783,1.176,0.830,1.490,1.071,0.453,0.803,0.760,���쓌,1.7,��
2018/11/26,09:40,0.783,1.181,0.831,1.490,1.070,0.454,0.803,0.760,���쓌,2.3,��
2018/11/26,09:50,0.783,1.179,0.830,1.490,1.072,0.454,0.802,0.759,��,2.6,��
2018/11/26,10:00,0.785,1.183,0.830,1.488,1.069,0.455,0.803,0.762,���쓌,2.6,��
2018/11/26,10:10,0.786,1.174,0.831,1.491,1.072,0.455,0.803,0.761,���쓌,3.2,��
2018/11/26,10:20,0.782,1.179,0.832,1.487,1.070,0.455,0.803,0.761,���쓌,1.7,��
2018/11/26,10:30,0.783,1.178,0.829,1.488,1.071,0.454,0.803,0.761,���쓌,2.3,��
2018/11/26,10:40,0.785,1.176,0.830,1.486,1.071,0.454,0.803,0.762,�쓌,0.6,��
2018/11/26,10:50,0.783,1.183,0.830,1.489,1.071,0.454,0.803,0.762,��,2.5,��
2018/11/26,11:00,0.784,1.179,0.831,1.490,1.074,0.454,0.804,0.761,���쓌,2.0,��
2018/11/26,11:10,0.784,1.183,0.829,1.490,1.073,0.452,0.804,0.763,���쓌,2.9,��
2018/11/26,11:20,0.783,1.180,0.831,1.491,1.071,0.454,0.804,0.762,���k��,2.9,��
2018/11/26,11:30,0.783,1.178,0.829,1.488,1.069,0.454,0.802,0.760,���k��,3.3,��
2018/11/26,11:40,0.784,1.180,0.829,1.488,1.071,0.453,0.804,0.762,�k�k��,3.2,��
2018/11/26,11:50,0.785,1.180,0.830,1.490,1.068,0.454,0.803,0.762,���k��,3.2,��
2018/11/26,12:00,0.785,1.181,0.829,1.490,1.071,0.455,0.803,0.763,�k�k��,3.4,��
2018/11/26,12:10,0.785,1.184,0.830,1.491,1.073,0.458,0.804,0.762,�k,5.3,��
2018/11/26,12:20,0.786,1.182,0.831,1.491,1.069,0.457,0.804,0.759,�k�k��,4.5,��
2018/11/26,12:30,0.785,1.183,0.830,1.489,1.069,0.458,0.803,0.758,�k,5.4,��
2018/11/26,12:40,0.783,1.183,0.831,1.491,1.072,0.458,0.802,0.759,�k�k��,6.1,��
2018/11/26,12:50,0.785,1.183,0.830,1.492,1.072,0.456,0.804,0.759,�k�k��,5.8,��
2018/11/26,13:00,0.784,1.179,0.831,1.491,1.071,0.457,0.804,0.759,�k��,7.3,��
2018/11/26,13:10,0.784,1.179,0.828,1.491,1.071,0.456,0.805,0.758,�k�k��,6.4,��
2018/11/26,13:20,0.783,1.182,0.828,1.491,1.072,0.457,0.804,0.759,�k��,6.6,��
2018/11/26,13:30,0.784,1.184,0.831,1.492,1.071,0.454,0.805,0.759,�k��,6.4,��
2018/11/26,13:40,0.785,1.181,0.830,1.490,1.070,0.457,0.805,0.759,�k��,5.6,��
2018/11/26,13:50,0.783,1.180,0.831,1.490,1.070,0.457,0.803,0.757,�k��,5.4,��
2018/11/26,14:00,0.784,1.177,0.829,1.490,1.071,0.455,0.803,0.759,���k��,4.1,��
2018/11/26,14:10,0.782,1.178,0.831,1.489,1.071,0.457,0.803,0.758,��,4.1,��
2018/11/26,14:20,0.786,1.181,0.831,1.490,1.071,0.456,0.803,0.760,���k��,3.9,��
2018/11/26,14:30,0.788,1.179,0.831,1.488,1.071,0.455,0.804,0.757,���k��,3.2,��
2018/11/26,14:40,0.785,1.180,0.832,1.490,1.072,0.457,0.804,0.759,���k��,3.2,��
2018/11/26,14:50,0.784,1.182,0.832,1.491,1.071,0.457,0.804,0.761,�k��,3.0,��
2018/11/26,15:00,0.787,1.185,0.833,1.491,1.071,0.456,0.805,0.759,���k��,2.9,��
2018/11/26,15:10,0.786,1.185,0.833,1.491,1.072,0.458,0.804,0.761,��,2.8,��
2018/11/26,15:20,0.788,1.185,0.830,1.489,1.075,0.455,0.806,0.761,��,2.6,��
2018/11/26,15:30,0.787,1.187,0.833,1.489,1.073,0.456,0.805,0.762,��,2.3,��
2018/11/26,15:40,0.788,1.188,0.833,1.488,1.070,0.456,0.805,0.761,���k��,2.2,��
2018/11/26,15:50,0.787,1.186,0.831,1.490,1.072,0.455,0.805,0.762,��,2.6,��
2018/11/26,16:00,0.787,1.189,0.832,1.491,1.071,0.458,0.805,0.762,��,2.3,��
2018/11/26,16:10,0.785,1.188,0.831,1.491,1.073,0.456,0.806,0.761,���k��,2.0,��
2018/11/26,16:20,0.788,1.188,0.830,1.490,1.076,0.457,0.806,0.762,��,2.2,��
2018/11/26,16:30,0.786,1.189,0.831,1.488,1.075,0.458,0.804,0.762,���k��,1.7,��
2018/11/26,16:40,0.786,1.187,0.830,1.489,1.073,0.457,0.805,0.762,��,2.3,��
2018/11/26,16:50,0.786,1.188,0.831,1.488,1.075,0.456,0.804,0.761,��,1.5,��
2018/11/26,17:00,0.786,1.190,0.829,1.490,1.073,0.456,0.804,0.761,���쓌,0.6,��
2018/11/26,17:10,0.784,1.189,0.830,1.489,1.071,0.456,0.805,0.760,���쓌,0.9,��
2018/11/26,17:20,0.787,1.189,0.831,1.489,1.075,0.455,0.806,0.762,���쓌,0.8,��
2018/11/26,17:30,0.786,1.188,0.832,1.491,1.074,0.456,0.804,0.760,��쓌,0.8,��
2018/11/26,17:40,0.784,1.191,0.832,1.488,1.074,0.456,0.804,0.760,��,0.6,��
2018/11/26,17:50,0.784,1.188,0.832,1.492,1.073,0.457,0.805,0.760,��쐼,1.4,��
2018/11/26,18:00,0.785,1.187,0.833,1.490,1.072,0.454,0.804,0.761,�쐼,1.5,��
2018/11/26,18:10,0.784,1.189,0.833,1.492,1.073,0.457,0.803,0.761,�쐼,1.5,��
2018/11/26,18:20,0.785,1.189,0.833,1.490,1.075,0.458,0.804,0.761,�쐼,1.5,��
2018/11/26,18:30,0.785,1.188,0.830,1.489,1.074,0.456,0.806,0.760,��,1.2,��
2018/11/26,18:40,0.785,1.188,0.831,1.486,1.073,0.456,0.803,0.761,�k��,2.2,��
2018/11/26,18:50,0.784,1.187,0.832,1.485,1.072,0.454,0.805,0.760,�k��,2.0,��
2018/11/26,19:00,0.785,1.189,0.830,1.486,1.072,0.455,0.803,0.761,�k�k��,2.8,��
2018/11/26,19:10,0.785,1.189,0.831,1.487,1.074,0.455,0.804,0.760,�k,2.6,��
2018/11/26,19:20,0.786,1.189,0.831,1.487,1.073,0.456,0.803,0.759,�k,2.3,��
2018/11/26,19:30,0.786,1.184,0.831,1.487,1.072,0.455,0.802,0.759,�k�k��,1.7,��
2018/11/26,19:40,0.787,1.188,0.833,1.488,1.073,0.455,0.804,0.760,��,0.9,��
2018/11/26,19:50,0.784,1.185,0.834,1.486,1.073,0.455,0.803,0.761,���쐼,0.9,��
2018/11/26,20:00,0.786,1.186,0.831,1.488,1.074,0.454,0.803,0.761,�쐼,1.5,��
2018/11/26,20:10,0.783,1.187,0.830,1.488,1.073,0.454,0.803,0.761,�쐼,1.7,��
2018/11/26,20:20,0.783,1.185,0.831,1.488,1.072,0.455,0.805,0.761,�쐼,2.0,��
2018/11/26,20:30,0.785,1.186,0.830,1.488,1.072,0.456,0.805,0.760,�쐼,2.3,��
2018/11/26,20:40,0.786,1.186,0.831,1.487,1.072,0.455,0.805,0.761,��쐼,2.3,��
2018/11/26,20:50,0.782,1.185,0.830,1.485,1.072,0.456,0.805,0.760,��쐼,2.9,��
2018/11/26,21:00,0.784,1.183,0.829,1.486,1.073,0.456,0.804,0.760,��쐼,3.1,��
2018/11/26,21:10,0.785,1.185,0.830,1.486,1.072,0.453,0.803,0.758,��쐼,3.3,��
2018/11/26,21:20,0.784,1.186,0.831,1.486,1.072,0.456,0.804,0.759,��쐼,3.9,��
2018/11/26,21:30,0.783,1.186,0.831,1.486,1.072,0.455,0.802,0.761,��쐼,4.2,��
2018/11/26,21:40,0.783,1.188,0.830,1.486,1.075,0.455,0.805,0.759,�쐼,3.7,��
2018/11/26,21:50,0.783,1.185,0.830,1.482,1.074,0.455,0.804,0.760,��쐼,3.6,��
2018/11/26,22:00,0.784,1.185,0.831,1.485,1.072,0.455,0.802,0.759,��쐼,3.7,��
2018/11/26,22:10,0.785,1.186,0.830,1.484,1.073,0.453,0.803,0.761,��쐼,3.7,��
2018/11/26,22:20,0.783,1.186,0.828,1.482,1.075,0.455,0.803,0.761,��쐼,3.9,��
2018/11/26,22:30,0.784,1.185,0.830,1.481,1.073,0.455,0.803,0.759,��쐼,4.1,��
2018/11/26,22:40,0.785,1.186,0.830,1.481,1.073,0.455,0.804,0.760,��쐼,4.7,��
2018/11/26,22:50,0.783,1.182,0.832,1.480,1.070,0.455,0.803,0.760,��쐼,5.7,��
2018/11/26,23:00,0.784,1.184,0.830,1.481,1.071,0.454,0.803,0.762,��,5.3,��
2018/11/26,23:10,0.782,1.187,0.830,1.482,1.072,0.455,0.803,0.757,��,5.5,��
2018/11/26,23:20,0.783,1.186,0.832,1.486,1.072,0.453,0.804,0.759,��쐼,5.7,��
2018/11/26,23:30,0.783,1.186,0.831,1.485,1.073,0.455,0.803,0.759,��,6.0,��
2018/11/26,23:40,0.784,1.187,0.830,1.488,1.072,0.453,0.802,0.760,��,6.0,��
2018/11/26,23:50,0.784,1.185,0.830,1.486,1.071,0.454,0.804,0.759,��,5.6,��
